User: anonymous   Login
Location: Brno
(49.2000°N, 16.6330°E)
Time: 17:47:49
(UTC+02:00)
Language:

RESURS DK-1 - Orbit

View from above orbital plane
View from above orbital plane
View from above satellite
View from above satellite

Ground track
Ground track

The orbit data is extracted from the following two-line orbital elements,

1 29228U 06021A   17174.89989012 +.00000101 +00000-0 +15066-4 0  9992
2 29228 069.9362 081.0013 0006708 307.7166 052.3386 15.02163988609100
Epoch (UTC): 23 June 2017 21:35:50
Eccentricity: 0.0006708
inclination: 69.9362°
perigee height: 555 km
apogee height: 565 km
right ascension of ascending node: 81.0013°
argument of perigee: 307.7166°
revolutions per day: 15.02163988
mean anomaly at epoch: 52.3386°
orbit number at epoch: 60910

The dashed part of the orbit path shows where the satellite is in the earth's shadow,  

DLR